Location: St. Louis
(38.6270°N, 90.1994°W)
Time: 06:32:51
(UTC-06:00)

A-11 Canister half - Pass Details

Date: 03 December 2021
Orbit: 1524 x 1684 km, 47.3° (Epoch: 22 January)

Event Time Altitude Azimuth Distance (km) Brightness Sun altitude
Exits shadow 03:37:11 55° 8° (N) 1,945 9.4 -39.3°
Drops below altitude 10° 03:45:56 10° 65° (ENE) 3,872 11.7 -37.6°
Sets 03:49:08 0° 70° (ENE) 4,838 12.5 -37.0°
